Time,TemperatureF,DewpointF,PressureIn,WindDirection,WindDirectionDegrees,WindSpeedMPH,WindSpeedGustMPH,Humidity,HourlyPrecipIn,Conditions,Clouds,dailyrainin,SoftwareType,DateUTC
2013-02-13 00:06:00,43.8,41.0,29.78,SE,141,5.0,-999.0,89,-99.99,,,0.01,weatherlink.com 1.10,2013-02-13 05:06:00,
2013-02-13 00:21:00,43.9,41.0,29.78,SE,126,0.0,-999.0,89,-99.99,,,0.01,weatherlink.com 1.10,2013-02-13 05:21:00,
2013-02-13 00:36:00,44.0,41.0,29.77,SE,143,5.0,-999.0,90,-99.99,,,0.01,weatherlink.com 1.10,2013-02-13 05:36:00,
2013-02-13 00:51:00,44.1,41.0,29.77,SE,127,4.0,-999.0,90,-99.99,,,0.01,weatherlink.com 1.10,2013-02-13 05:51:00,
2013-02-13 01:06:00,44.0,42.0,29.75,SE,132,4.0,-999.0,91,-99.99,,,0.01,weatherlink.com 1.10,2013-02-13 06:06:00,
2013-02-13 01:21:00,43.9,42.0,29.75,SE,144,5.0,-999.0,92,-99.99,,,0.01,weatherlink.com 1.10,2013-02-13 06:21:00,
2013-02-13 01:36:00,43.8,42.0,29.75,SSE,154,5.0,-999.0,93,-99.99,,,0.01,weatherlink.com 1.10,2013-02-13 06:36:00,
2013-02-13 01:51:00,43.8,42.0,29.74,SE,124,7.0,-999.0,93,-99.99,,,0.01,weatherlink.com 1.10,2013-02-13 06:51:00,
2013-02-13 02:06:00,43.8,42.0,29.73,SE,130,4.0,-999.0,92,-99.99,,,0.01,weatherlink.com 1.10,2013-02-13 07:06:00,
2013-02-13 02:21:00,44.0,42.0,29.72,SE,136,4.0,-999.0,92,-99.99,,,0.01,weatherlink.com 1.10,2013-02-13 07:21:00,
2013-02-13 02:36:00,44.1,42.0,29.73,SSE,155,2.0,-999.0,92,-99.99,,,0.01,weatherlink.com 1.10,2013-02-13 07:36:00,
2013-02-13 02:51:00,44.1,42.0,29.72,South,178,0.0,-999.0,92,-99.99,,,0.01,weatherlink.com 1.10,2013-02-13 07:51:00,
2013-02-13 03:06:00,44.2,42.0,29.71,SSE,161,0.0,-999.0,91,-99.99,,,0.01,weatherlink.com 1.10,2013-02-13 08:06:00,
2013-02-13 03:21:00,44.2,42.0,29.70,SSE,153,0.0,-999.0,91,-99.99,,,0.01,weatherlink.com 1.10,2013-02-13 08:21:00,
2013-02-13 03:36:00,44.3,42.0,29.71,SSE,159,5.0,-999.0,91,-99.99,,,0.01,weatherlink.com 1.10,2013-02-13 08:36:00,
2013-02-13 03:52:00,44.4,42.0,29.69,South,185,7.0,-999.0,91,-99.99,,,0.01,weatherlink.com 1.10,2013-02-13 08:52:00,
2013-02-13 04:07:00,44.5,42.0,29.69,South,177,8.0,-999.0,91,-99.99,,,0.01,weatherlink.com 1.10,2013-02-13 09:07:00,
2013-02-13 04:21:00,44.6,42.0,29.68,SSW,198,9.0,-999.0,91,-99.99,,,0.01,weatherlink.com 1.10,2013-02-13 09:21:00,
2013-02-13 04:36:00,44.6,42.0,29.69,South,190,5.0,-999.0,90,-99.99,,,0.01,weatherlink.com 1.10,2013-02-13 09:36:00,
2013-02-13 04:51:00,44.7,42.0,29.69,SSW,194,4.0,-999.0,90,-99.99,,,0.02,weatherlink.com 1.10,2013-02-13 09:51:00,
2013-02-13 05:07:00,44.8,42.0,29.69,South,175,9.0,-999.0,90,-99.99,,,0.02,weatherlink.com 1.10,2013-02-13 10:07:00,
2013-02-13 05:21:00,45.0,42.0,29.70,SSW,198,2.0,-999.0,90,-99.99,,,0.02,weatherlink.com 1.10,2013-02-13 10:21:00,
2013-02-13 05:36:00,45.1,42.0,29.69,SW,224,1.0,-999.0,90,-99.99,,,0.02,weatherlink.com 1.10,2013-02-13 10:36:00,
2013-02-13 05:51:00,45.2,43.0,29.70,SW,226,1.0,-999.0,90,-99.99,,,0.02,weatherlink.com 1.10,2013-02-13 10:51:00,
2013-02-13 06:06:00,45.2,43.0,29.71,SSW,209,3.0,-999.0,90,-99.99,,,0.02,weatherlink.com 1.10,2013-02-13 11:06:00,
2013-02-13 06:22:00,45.2,43.0,29.71,WSW,251,3.0,-999.0,90,-99.99,,,0.02,weatherlink.com 1.10,2013-02-13 11:22:00,
2013-02-13 06:36:00,45.3,43.0,29.71,WSW,240,5.0,-999.0,90,-99.99,,,0.02,weatherlink.com 1.10,2013-02-13 11:36:00,
2013-02-13 06:51:00,45.5,43.0,29.71,NW,306,5.0,-999.0,90,-99.99,,,0.02,weatherlink.com 1.10,2013-02-13 11:51:00,
2013-02-13 07:06:00,45.5,43.0,29.71,WSW,250,8.0,-999.0,90,-99.99,,,0.02,weatherlink.com 1.10,2013-02-13 12:06:00,
2013-02-13 07:21:00,45.4,43.0,29.73,WNW,288,12.0,-999.0,90,-99.99,,,0.02,weatherlink.com 1.10,2013-02-13 12:21:00,
2013-02-13 07:36:00,45.2,43.0,29.73,NW,309,3.0,-999.0,91,-99.99,,,0.02,weatherlink.com 1.10,2013-02-13 12:36:00,
2013-02-13 07:51:00,45.0,43.0,29.74,WNW,300,7.0,-999.0,91,-99.99,,,0.02,weatherlink.com 1.10,2013-02-13 12:51:00,
2013-02-13 08:07:00,44.9,43.0,29.76,West,276,5.0,-999.0,91,-99.99,,,0.02,weatherlink.com 1.10,2013-02-13 13:07:00,
2013-02-13 08:22:00,44.7,43.0,29.77,NW,304,7.0,-999.0,92,-99.99,,,0.02,weatherlink.com 1.10,2013-02-13 13:22:00,
2013-02-13 08:37:00,44.6,43.0,29.76,WNW,284,4.0,-999.0,92,-99.99,,,0.02,weatherlink.com 1.10,2013-02-13 13:37:00,
2013-02-13 08:52:00,44.5,42.0,29.76,NW,315,5.0,-999.0,92,-99.99,,,0.03,weatherlink.com 1.10,2013-02-13 13:52:00,
2013-02-13 09:07:00,44.4,42.0,29.77,NNW,329,9.0,-999.0,92,-99.99,,,0.03,weatherlink.com 1.10,2013-02-13 14:07:00,
2013-02-13 09:22:00,44.4,42.0,29.79,SW,227,7.0,-999.0,92,-99.99,,,0.03,weatherlink.com 1.10,2013-02-13 14:22:00,
2013-02-13 09:37:00,44.4,42.0,29.78,NW,307,6.0,-999.0,92,-99.99,,,0.03,weatherlink.com 1.10,2013-02-13 14:37:00,
2013-02-13 09:52:00,44.5,42.0,29.79,West,261,3.0,-999.0,92,-99.99,,,0.03,weatherlink.com 1.10,2013-02-13 14:52:00,
2013-02-13 10:07:00,44.7,42.0,29.80,North,360,8.0,-999.0,90,-99.99,,,0.03,weatherlink.com 1.10,2013-02-13 15:07:00,
2013-02-13 10:22:00,44.4,41.0,29.80,NNW,331,8.0,-999.0,89,-99.99,,,0.03,weatherlink.com 1.10,2013-02-13 15:22:00,
2013-02-13 10:37:00,44.2,41.0,29.80,WNW,295,5.0,-999.0,88,-99.99,,,0.03,weatherlink.com 1.10,2013-02-13 15:37:00,
2013-02-13 10:52:00,44.2,41.0,29.79,NW,325,13.0,-999.0,87,-99.99,,,0.03,weatherlink.com 1.10,2013-02-13 15:52:00,
2013-02-13 11:07:00,44.1,41.0,29.81,WNW,302,11.0,-999.0,88,-99.99,,,0.03,weatherlink.com 1.10,2013-02-13 16:07:00,
2013-02-13 11:22:00,44.1,41.0,29.81,NNW,346,5.0,-999.0,89,-99.99,,,0.03,weatherlink.com 1.10,2013-02-13 16:22:00,
2013-02-13 11:37:00,44.5,41.0,29.82,NW,321,13.0,-999.0,86,-99.99,,,0.03,weatherlink.com 1.10,2013-02-13 16:37:00,
2013-02-13 11:52:00,44.5,41.0,29.82,North,355,8.0,-999.0,87,-99.99,,,0.03,weatherlink.com 1.10,2013-02-13 16:52:00,
2013-02-13 12:07:00,44.7,41.0,29.82,NW,319,10.0,-999.0,86,-99.99,,,0.03,weatherlink.com 1.10,2013-02-13 17:07:00,
2013-02-13 12:22:00,44.7,41.0,29.82,NNW,329,9.0,-999.0,86,-99.99,,,0.03,weatherlink.com 1.10,2013-02-13 17:22:00,
2013-02-13 12:37:00,44.7,41.0,29.83,WNW,294,5.0,-999.0,86,-99.99,,,0.03,weatherlink.com 1.10,2013-02-13 17:37:00,
2013-02-13 12:52:00,44.7,41.0,29.82,NW,304,6.0,-999.0,86,-99.99,,,0.03,weatherlink.com 1.10,2013-02-13 17:52:00,
2013-02-13 13:07:00,44.5,41.0,29.83,NW,316,4.0,-999.0,86,-99.99,,,0.03,weatherlink.com 1.10,2013-02-13 18:07:00,
2013-02-13 13:22:00,46.0,42.0,29.82,NW,314,8.0,-999.0,86,-99.99,,,0.03,weatherlink.com 1.10,2013-02-13 18:22:00,
2013-02-13 13:37:00,45.3,41.0,29.82,NNW,332,7.0,-999.0,84,-99.99,,,0.03,weatherlink.com 1.10,2013-02-13 18:37:00,
2013-02-13 13:52:00,44.9,40.0,29.82,NW,324,10.0,-999.0,82,-99.99,,,0.03,weatherlink.com 1.10,2013-02-13 18:52:00,
2013-02-13 14:07:00,44.6,40.0,29.82,NNW,336,14.0,-999.0,83,-99.99,,,0.03,weatherlink.com 1.10,2013-02-13 19:07:00,
2013-02-13 14:22:00,43.5,39.0,29.83,NNW,327,14.0,-999.0,85,-99.99,,,0.03,weatherlink.com 1.10,2013-02-13 19:22:00,
2013-02-13 14:37:00,42.2,39.0,29.84,North,355,16.0,-999.0,87,-99.99,,,0.03,weatherlink.com 1.10,2013-02-13 19:37:00,
2013-02-13 14:52:00,42.1,38.0,29.84,NW,321,11.0,-999.0,86,-99.99,,,0.03,weatherlink.com 1.10,2013-02-13 19:52:00,
2013-02-13 15:07:00,42.3,38.0,29.85,NW,318,5.0,-999.0,86,-99.99,,,0.04,weatherlink.com 1.10,2013-02-13 20:07:00,
2013-02-13 15:22:00,42.3,38.0,29.86,NNW,328,9.0,-999.0,84,-99.99,,,0.04,weatherlink.com 1.10,2013-02-13 20:22:00,
2013-02-13 15:39:00,42.2,38.0,29.87,NNW,348,11.0,-999.0,85,-99.99,,,0.04,weatherlink.com 1.10,2013-02-13 20:39:00,
2013-02-13 15:52:00,41.8,37.0,29.88,NNW,337,9.0,-999.0,84,-99.99,,,0.04,weatherlink.com 1.10,2013-02-13 20:52:00,
2013-02-13 16:07:00,41.6,37.0,29.88,North,355,11.0,-999.0,85,-99.99,,,0.04,weatherlink.com 1.10,2013-02-13 21:07:00,
2013-02-13 16:22:00,41.5,37.0,29.88,North,360,8.0,-999.0,85,-99.99,,,0.04,weatherlink.com 1.10,2013-02-13 21:22:00,
2013-02-13 16:37:00,41.3,37.0,29.89,NNW,329,14.0,-999.0,84,-99.99,,,0.04,weatherlink.com 1.10,2013-02-13 21:37:00,
2013-02-13 16:52:00,41.1,37.0,29.91,NNW,340,11.0,-999.0,85,-99.99,,,0.04,weatherlink.com 1.10,2013-02-13 21:52:00,
2013-02-13 17:22:00,40.8,37.0,29.91,North,355,12.0,-999.0,86,-99.99,,,0.04,weatherlink.com 1.10,2013-02-13 22:22:00,
2013-02-13 17:37:00,40.9,36.0,29.92,North,11,9.0,-999.0,84,-99.99,,,0.00,weatherlink.com 1.10,2013-02-13 22:37:00,
2013-02-13 18:08:00,40.5,36.0,29.93,North,10,4.0,-999.0,84,-99.99,,,0.00,weatherlink.com 1.10,2013-02-13 23:08:00,
2013-02-13 18:22:00,40.5,36.0,29.93,NNW,331,2.0,-999.0,83,-99.99,,,0.00,weatherlink.com 1.10,2013-02-13 23:22:00,
2013-02-13 18:37:00,40.0,36.0,29.94,North,355,0.0,-999.0,84,-99.99,,,0.00,weatherlink.com 1.10,2013-02-13 23:37:00,
2013-02-13 18:52:00,39.6,36.0,29.94,NNW,340,1.0,-999.0,85,-99.99,,,0.00,weatherlink.com 1.10,2013-02-13 23:52:00,
2013-02-13 19:08:00,39.2,35.0,29.93,NNW,340,0.0,-999.0,86,-99.99,,,0.00,weatherlink.com 1.10,2013-02-14 00:08:00,
2013-02-13 19:22:00,38.5,35.0,29.93,NNW,340,0.0,-999.0,87,-99.99,,,0.00,weatherlink.com 1.10,2013-02-14 00:22:00,
2013-02-13 19:38:00,37.7,35.0,29.95,NNW,340,0.0,-999.0,89,-99.99,,,0.00,weatherlink.com 1.10,2013-02-14 00:38:00,
2013-02-13 19:53:00,36.6,34.0,29.95,NNW,340,0.0,-999.0,90,-99.99,,,0.00,weatherlink.com 1.10,2013-02-14 00:53:00,
2013-02-13 20:08:00,35.9,34.0,29.95,NNW,340,0.0,-999.0,91,-99.99,,,0.00,weatherlink.com 1.10,2013-02-14 01:08:00,
2013-02-13 20:23:00,35.5,33.0,29.96,NNW,340,0.0,-999.0,92,-99.99,,,0.00,weatherlink.com 1.10,2013-02-14 01:23:00,
2013-02-13 20:38:00,35.0,33.0,29.96,NNW,340,0.0,-999.0,92,-99.99,,,0.00,weatherlink.com 1.10,2013-02-14 01:38:00,
2013-02-13 20:53:00,34.9,33.0,29.96,NNW,340,0.0,-999.0,92,-99.99,,,0.00,weatherlink.com 1.10,2013-02-14 01:53:00,
2013-02-13 21:08:00,34.4,32.0,29.98,NNW,340,0.0,-999.0,92,-99.99,,,0.00,weatherlink.com 1.10,2013-02-14 02:08:00,
2013-02-13 21:23:00,34.5,33.0,29.98,NNW,340,0.0,-999.0,92,-99.99,,,0.00,weatherlink.com 1.10,2013-02-14 02:23:00,
2013-02-13 21:38:00,35.9,34.0,29.98,NNW,334,0.0,-999.0,92,-99.99,,,0.00,weatherlink.com 1.10,2013-02-14 02:38:00,
2013-02-13 21:53:00,36.0,34.0,29.99,NNW,334,0.0,-999.0,92,-99.99,,,0.00,weatherlink.com 1.10,2013-02-14 02:53:00,
2013-02-13 22:08:00,36.4,34.0,29.99,NNW,334,0.0,-999.0,92,-99.99,,,0.01,weatherlink.com 1.10,2013-02-14 03:08:00,
2013-02-13 22:38:00,37.7,36.0,30.00,NW,325,0.0,-999.0,92,-99.99,,,0.01,weatherlink.com 1.10,2013-02-14 03:38:00,
2013-02-13 22:53:00,37.8,36.0,30.00,NW,325,0.0,-999.0,92,-99.99,,,0.01,weatherlink.com 1.10,2013-02-14 03:53:00,
2013-02-13 23:08:00,37.9,36.0,30.00,NW,325,0.0,-999.0,92,-99.99,,,0.01,weatherlink.com 1.10,2013-02-14 04:08:00,
2013-02-13 23:23:00,38.0,36.0,30.00,NW,325,0.0,-999.0,92,-99.99,,,0.01,weatherlink.com 1.10,2013-02-14 04:23:00,
2013-02-13 23:38:00,38.2,36.0,30.00,NW,325,0.0,-999.0,92,-99.99,,,0.01,weatherlink.com 1.10,2013-02-14 04:38:00,